SL-14 DEB

Satellite information

Favourite Embed

Satellite Type and Status

DEBRISIN ORBIT

Key statistics

Satellite SL-14 DEB at a glance.

Uptime

13997

Days in orbit

Revolutions

≈ 14.7

Per day

Orbit

LEO

Low Earth Orbit

Inclination

82.1

Latest

Satellite identification and parameters

Extended collection of information and parameters for SL-14 DEB.

Object identification

Identified? True

Debris? True

Object name: SL-14 DEB

International designator: 1987-068CC

Object number (NORAD): 25454

Object ID (CCSDS): 25454

Country: COMMONWEALTH OF INDEPENDENT STATES (CIS)

Current information (Y/N): Y

RCS size: SMALL

Orbital parameters

Period: 98.08 minutes

Inclination: 82.1469 deg

SMA: 7044.971 km

Apoapsis: 687.351 km

Periapsis: 646.322 km

RAAN: 254.1256 deg

Eccentricy: 0.00291193

Argument of periapsis: 116.3153 deg

Mean anomaly: 244.1049 deg

Mean motion: 14.68195566 rev/day

Mean motion (dot): 0.00042009 rev/day2

B* drag term: 0.0072119952 1/REarth

Two-line elements (TLE)

Creation date: Dec. 12, 2025, 3:16 a.m.

Reference frame: TEME

Reference center: EARTH

Epoch: Dec. 11, 2025, 5:34 p.m. UTC

TLE line 0: 0 SL-14 DEB

TLE line 1: 1 25454U 87068CC 25345.73251029 .00042009 00000-0 72120-2 0 9996

TLE line 2: 2 25454 82.1469 254.1256 0029119 116.3153 244.1049 14.68195566614049

Live tracking on map

Real-time ground track for satellite SL-14 DEB.

In-orbit conjunctions

A list of the most updated potential collisions computed for object SL-14 DEB.

Target Orbit TCA Probability of collision Miss distance Type
CZ-4 DEB SSO 2025-06-18 00:12:56 0.000251671 158.0 (m) DEBRIS
CBERS 1 SSO 2024-10-12 18:16:28 0.0001444583 928.0 (m) PAYLOAD
DMSP 5D-2 F13 DEB SSO 2024-09-26 21:55:57 0.0001578954 815.0 (m) DEBRIS

Associated space launch

Second generation soviet meteorological satellite

SL-14 DEB was lifted into orbit during the mission ‘Tsiklon-3 | Meteor-2 16’, on board a Tsiklon-3 space rocket.

The launch took place on Aug. 18, 1987, 2:27 a.m. from 32/1.

For more information about the launch, click the button.

Launch to space Tsiklon-3 | Meteor-2 16
Tsiklon-3 | Meteor-2 16

Agency: N/A

Status: Launch Successful

Launch date: Aug. 18, 1987, 2:27 a.m. UTC

Rocket: Tsiklon-3

Launch pad: 32/1

Location: Plesetsk Cosmodrome, Russian Federation

...

Latest news about this satellite

There are no fresh news available about this satellite. Check back as we update our databases every day.


Newsletter sign-up

Weekly statistics, charts and insights to help you stay on top of the space industry.